sat.trackr.live / text

‹ back to catalog

STARLINK-4472

NORAD 53661 · 2022-105P

PAYLOAD ACTIVE UNKNOWN

§ Identity

Operator
Country
US
Launch date
2022-08-31
Launch site
AFWTR
Launch vehicle
Mass (kg)
RCS (m²)

Purposes: comms

External: N2YO · Heavens-Above · Gunter

§ Orbital elements

Epoch: 2026-09-20T14:26:10.759488Z

Period
95.64 min
Inclination
97.2862°
Eccentricity
0.0001792
Mean motion
15.05661393 rev/d
Perigee alt
548.2 km
Apogee alt
550.7 km
Semi-major
6,927.6 km
B*
-1.8653e-6
RAAN
137.3533°
Arg perigee
54.0780°
Mean anomaly
306.0614°
Rev number
22,255

§ Raw data

STARLINK-44721 53661U 22105P   26263.60151342 -.00000083  00000+0 -18653-5 0  99922 53661  97.2862 137.3533 0001792  54.0780 306.0614 15.05661393222550

JSON: /api/v1/satellites/53661 · /tle

For live sub-satellite position, see the globe view (requires WebGL).

§ Visibility from observer

Set your observer location to see the next 7 days of passes ≥ 10°. The values pass through the URL so the page stays shareable.

No JS? Fill the form by hand. The geolocation button needs JavaScript.